This is the latest recevied weather packets stored in our database for station/object WC4PEM-13. If no packets are shown the sender has not sent any weather packets the latest 10 day(s).
| Time | Temp. | Humidity | Pressure | Rain* | Wind** | Luminosity | Snow |
|---|---|---|---|---|---|---|---|
| 1777997849 | 27.78° C | 62% | 1016.1 hPa | 0 mm | - | - | - |
| 1777997549 | 27.78° C | 63% | 1016.3 hPa | 0 mm | - | - | - |
| 1777997249 | 28.33° C | 61% | 1016.4 hPa | 0 mm | - | - | - |
| 1777996949 | 28.33° C | 62% | 1016.2 hPa | 0 mm | - | - | - |
| 1777996649 | 28.33° C | 61% | 1016.2 hPa | 0 mm | - | - | - |
| 1777996349 | 28.33° C | 62% | 1016.2 hPa | 0 mm | - | - | - |
| 1777996051 | 27.78° C | 62% | 1016.1 hPa | 0 mm | - | - | - |
| 1777995749 | 27.78° C | 63% | 1016.2 hPa | 0 mm | - | - | - |
| 1777995449 | 27.78° C | 63% | 1016.2 hPa | 0 mm | - | - | - |
| 1777995149 | 27.78° C | 63% | 1016.3 hPa | 0 mm | - | - | - |
| 1777994849 | 27.78° C | 67% | 1016.2 hPa | 0 mm | - | - | - |
| 1777994549 | 27.78° C | 65% | 1016.2 hPa | 0 mm | - | - | - |
| 1777994249 | 27.22° C | 68% | 1016.3 hPa | 0 mm | - | - | - |
| 1777993949 | 27.22° C | 68% | 1016.3 hPa | 0 mm | - | - | - |
| 1777993649 | 26.67° C | 67% | 1016.3 hPa | 0 mm | - | - | - |
| 1777993349 | 26.67° C | 68% | 1016.3 hPa | 0 mm | - | - | - |
| 1777993049 | 26.67° C | 69% | 1016.3 hPa | 0 mm | - | - | - |
| 1777992749 | 26.67° C | 69% | 1016.1 hPa | 0 mm | - | - | - |
| 1777992449 | 26.11° C | 71% | 1016.1 hPa | 0 mm | - | - | - |
| 1777992149 | 26.11° C | 68% | 1016.1 hPa | 0 mm | - | - | - |
| 1777991849 | 26.11° C | 69% | 1016 hPa | 0 mm | - | - | - |
| 1777991549 | 25.56° C | 71% | 1015.9 hPa | 0 mm | - | - | - |
| 1777991249 | 25.56° C | 72% | 1016 hPa | 0 mm | - | - | - |
| 1777990949 | 25.56° C | 74% | 1016 hPa | 0 mm | - | - | - |
| 1777990649 | 25° C | 73% | 1015.9 hPa | 0 mm | - | - | - |
* Rain latest hour (hover to see other rain measurements)
** Current wind speed in m/s (hover to see current wind gust speed)